Location: Recife
(8.0585°S, 34.8848°W)
Time: 21:28:16
(UTC-03:00)

A-11 Canister half - Pass Details

Date: 20 April 2026
Orbit: 1523 x 1685 km, 47.3° (Epoch: 12 May)

Event Time Altitude Azimuth Distance (km) Brightness Sun altitude
Rises 06:29:45 0° 351° (N) 4,864 11.7 15.6°
Reaches altitude 10° 06:34:09 10° 8° (N) 3,854 11.5 16.6°
Maximum altitude 06:40:42 20° 50° (NE) 3,101 12.1 18.2°
Drops below altitude 10° 06:47:06 10° 93° (E) 3,777 12.7 19.7°
Sets 06:51:17 0° 109° (ESE) 4,737 12.5 20.7°
